Regional Weather Roundup
Issued by NWS

Home | Current Version | Previous Version | Text Only | Print | Product List | Glossary On
Versions: 1 2 3 4 5 6 7 8 9 10 11 12 13 14 15 16 17 18 19 20 21 22 23 24 25 26 27 28 29 30 31 32 33 34 35 36 37 38 39 40 41 42 43 44 45 46 47 48 49 50
000
ASHW40 PHFO 291943
RWRHI

WEATHER ROUNDUP FOR HAWAII
NATIONAL WEATHER SERVICE HONOLULU HI
900 AM HST SAT APR 29 2017

THIS IS AN AUTOMATED REPORT THAT HAS NOT BEEN QUALITY CONTROLLED.

NOTE..."FAIR" INDICATES FEW OR NO CLOUDS BELOW 12,000 FEET WITH NO
SIGNIFICANT WEATHER AND/OR OBSTRUCTIONS TO VISIBILITY.

* - THESE SITES REPORT LIMITED FIELDS

HIZ001>004-292000-
KAUAI-NIIHAU-

CITY           SKY/WX    TMP DP  RH WIND       PRES   REMARKS
LIHUE APT      SUNNY     73  55  53 N13G21    29.94S
PORT ALLEN*      N/A     75 N/A N/A SE2         N/A
POIPU*           N/A     73 N/A N/A N5          N/A
PRINCEVILLE*     N/A     70 N/A N/A NW5         N/A
KOKOLE POINT*  NOT AVBL
MOLOAA DAIRY*    N/A     72  54  53 NW6G17      N/A
WAIMEA HTS*      N/A     79  54  41 N5G12       N/A
PUU OPAE*      NOT AVBL
PUU LUA*       NOT AVBL
MAKAHA RIDGE*    N/A     66  52  59 N3G12       N/A
$$

HIZ005>011-292000-
OAHU-

CITY           SKY/WX    TMP DP  RH WIND       PRES   REMARKS
HONOLULU       PTSUNNY   73  59  61 N16       29.92R
KALAELOA       CLOUDY    77  59  53 NE10G20   29.92R
KANEOHE MCB    NOT AVBL
WHEELER FIELD  FAIR      69  61  76 NW16G23   29.92R
BELLOWS*         N/A    N/A N/A N/A S2G12       N/A
KAHUKU*          N/A    N/A N/A N/A NW6G13      N/A
WHEELER*         N/A    N/A N/A N/A N12G20      N/A
WAIANAE HARBOR   N/A    N/A N/A N/A N13G26      N/A
DILLINGHAM*      N/A     88  77  70 SE1G7       N/A  HX 100
KAHUKU TRN*      N/A     64  54  68 S3G12       N/A
KAWAILOA*        N/A     64  59  82 N5          N/A
KII*             N/A     72  59  64 NW12G17     N/A
MAKUA RANGE*     N/A     72  57  60 W12G21      N/A
OAHU FOREST NW   N/A     64  55  72 N13G22      N/A
SCHOFIELD BRK*   N/A     70  59  68 MISG        N/A
SCHOFIELD S*   NOT AVBL
WAIANAE VLY*     N/A     70  59  68 NW8G22      N/A
KUAOKALA*        N/A     66  55  68 N18G32      N/A
HONOULIUULI*   NOT AVBL
MOKUOLOE IS*   NOT AVBL
PALEHUA*         N/A     66  59  77 SE3         N/A
WAIAWA PHB*    NOT AVBL
$$

HIZ012>013-292000-
MOLOKAI-

CITY           SKY/WX    TMP DP  RH WIND       PRES   REMARKS
MOLOKAI AIRPT  CLOUDY    72  65  78 N12       29.93S
KALAUPAPA      NOT AVBL
MAKAPULAPAI*     N/A     66  64  94 SE5         N/A
MOLOKAI 1*       N/A     61  59  94 N8          N/A
PUU ALII*        N/A     56  56 100 S1G7        N/A
$$

HIZ016-292000-
KAHOOLAWE-

CITY           SKY/WX    TMP DP  RH WIND       PRES   REMARKS
KAHOOLAWE*     NOT AVBL
HAKIOAWA*        N/A     69  69  98 MISG      30.33R
HONOKANAIA*      N/A     70  66  88 W7G16     29.84R
KANELOA*         N/A     70  68  94 SE3       29.96S
KEALIALALO*    NOT AVBL
LUA MAKIKA*    NOT AVBL
$$

HIZ014>015-292000-
LANAI-

CITY           SKY/WX    TMP DP  RH WIND       PRES   REMARKS
LANAI CITY     CLOUDY    68  63  83 N17G23    29.95R
LANAI 1*       NOT AVBL
$$

HIZ017>028-292000-
MAUI-

CITY           SKY/WX    TMP DP  RH WIND       PRES   REMARKS
KAHULUI        RAIN      70  66  88 N14       29.92S FOG
KAPALUA-W MAUI CLOUDY    68  63  83 N15G28    29.92
HANA AIRPORT   NOT AVBL
HANA*            N/A     73 N/A N/A NW8G16      N/A
HALEAKALA SUMM   N/A     43  43 100 S2G23       N/A
MAALAEA BAY*     N/A     70 N/A N/A NE9         N/A
HALEAKALA*     NOT AVBL
KAUPO GAP*     NOT AVBL
KULA 1*          N/A     52  51  98 SE3G12      N/A
$$

HIZ023>026-292000-
BIG ISLAND OF HAWAII COAST AND LOWER SLOPES-

CITY           SKY/WX    TMP DP  RH WIND       PRES   REMARKS
KAILUA KONA    MOSUNNY   80  63  55 S22G28    29.88F
HILO           MOSUNNY   77  61  57 W3        29.90R
HONOKAA*         N/A     77 N/A N/A VRB1        N/A
KAWAIHAE MWT*    N/A     81 N/A N/A NW8G15      N/A
KAWAIHAE*        N/A     77 N/A N/A NW9       29.88F
SOUTH POINT*     N/A     72 N/A N/A SE8         N/A
UPOLU AIRPORT* NOT AVBL
KAMUELA*       CLEAR     73  55  53 W7        29.98F
HAKALAU*         N/A     61  50  66 NE5         N/A
KALOKO-HONOKO*   N/A     81  63  54 S13G18    29.88
PALI 2*          N/A     64  63  94 N6G12       N/A
KEALAKOMO*       N/A     73  68  83 SE3         N/A
KAUPULEHU*       N/A     81  59  47 N6G12       N/A
KAPAPALA*        N/A     72  64  76 S6          N/A
LOWER KAHUKU*    N/A     66  59  77 SW2         N/A
PUHE CS*         N/A     79  61  53 NW5G13      N/A
PUHO CS*         N/A     84  61  45 S2          N/A
PTA KEAMUKU*     N/A     70  59  68 CALM        N/A
WAIKOLOA*        N/A    N/A N/A N/A N5          N/A
$$

HIZ027>028-292000-
BIG ISLAND OF HAWAII INTERIOR AND SUMMMITS-

CITY           SKY/WX    TMP DP  RH WIND       PRES   REMARKS
BRADSHAW FIELD MOSUNNY   62  42  47 CALM      30.21R
MK VISITOR CEN   N/A     52  34  50 W6          N/A
MAUNA KEA*       N/A     32  -8  18 SW33        N/A  WCI  17
MAUNA LOA*       N/A     43  10  26 MISG        N/A
MAUNA LOA 1*   NOT AVBL
PTA KIPUKA*      N/A     64  46  52 SW9G15      N/A
PTA RANGE 17*  NOT AVBL
PTA WEST*        N/A     68  52  56 W7G16       N/A
NENE CABIN*      N/A     54  50  87 S7G13       N/A
AHUMOA*          N/A     60  46  60 S9G18       N/A
PTA PORTABLE*  NOT AVBL
PUU MALI*        N/A     63  52  67 N6          N/A
$$

HIC003-292000-
NORTHWEST ISLANDS-

CITY           SKY/WX    TMP DP  RH WIND       PRES   REMARKS
MIDWAY ISLAND  SUNNY     68  55  64 E10       30.30R
MIDWAY NOS*      N/A     68 N/A N/A MISG      30.28S
FRENCH FRIGATE NOT AVBL
$$

PHZ110>124-180-292000-
BUOY REPORTS

STATION/POSITION TIME  TEMP    WIND        PRES    WAVE   SWELL
                       AIR SEA DIR/SP/G            HT/PER HT/DIR
                 (UTC) (F)     (DEG/KT/KT) (MB)    (FT/S) (FT/D)
BUOY 51001       1920   67 75   10/ 17/ 23 1015.5
BUOY 51101       1850   68 75   10/ 17/ 19 1016.3R  10/10   7/330
BUOY 51100       NOT AVBL
BUOY 51002       1920   77 79  120/  6/  8 1012.6
BUOY 51003       1850   75 79   20/ 19/ 25 1012.6R  10/10   8/350
BUOY 51004       1850      78  130/ 12/ 12 1013.4R   6/16   5/160
BARBERS PT BUOY  NOT AVBL
WAIMEA BAY BUOY  1902      77                N/A     8/10   3/320
KAILUA BAY BUOY  1904      78                N/A     7/ 8   2/130
LANAI BUOY       1915      79                N/A     6/15   3/190
BARBERS PT 2     NOT AVBL
PAUWELA MAUI     1909      77                N/A     9/ 8   2/310
HILO             1912      78                N/A     5/ 9   2/350
KANEOHE BAY BUOY 1925      78                N/A     6/ 8   2/350
HANALEI KAUAI    1922      78                N/A     8/ 9   2/310
KAHULUI HARBOR   1906   69 78  340/ 17/ 21 1012.9
HONOLULU HARBOR  1906   73 79  340/  5/  9 1013.6
KILO NALU        NOT AVBL
HILO HARBOR      1906   77 77  280/  3/  5 1012.1
MOKUOLOE         1836   74 79  330/ 15/ 17 1013.2R
NAWILIWILI       1918   71     340/  7/ 15 1013.4
WHOTS BUOY       NOT AVBL
BUOY 51028       NOT AVBL
$$

......................KEY........................................
  SKY/WX - SKY CONDITIONS/PRESENT WEATHER
  TMP    - TEMPERATURE IN FAHRENHEIT
  DWPT   - DEWPOINT IN FAHRENHEIT
  RH     - RELATIVE HUMIDITY IN PERCENT
  WIND   - DIRECTION AND SPEED /MPH FOR ISLANDS...KTS FOR BUOYS/
  PRES   - MEAN SEA LEVEL PRESSURE IN INCHES OF HG
  VSB    - VISIBILITY IN MILES
  HX     - HEAT INDEX
  WCI    - WIND CHILL INDEX
  VRB    - VARIABLE WIND DIRECTION
  N/A    - NOT AVAILABLE




USA.gov is the U.S. government's official web portal to all federal, state and local government web resources and services.